Burley, ID

3:47 AM MDT on March 23, 2017 (GMT -0600)
Burley Municipal

Weather History for KBYI - July, 2013

Change the Weather History Date:

Tuesday, July 23, 2013

  Actual Average Record
Temperature  
Mean Temperature 71 °F 71 °F  
Max Temperature 91 °F 87 °F 101 °F (1959)
Min Temperature 51 °F 55 °F 40 °F (1954)
Degree Days  
Heating Degree Days 0 0  
Month to date heating degree days 0 20  
Since 1 June heating degree days 101 154  
Since 1 July heating degree days 0 20  
Cooling Degree Days 6 6  
Month to date cooling degree days 206 112  
Year to date cooling degree days 302 165  
Since 1 June cooling degree days 292 159  
Growing Degree Days 22 (Base 50)    
Moisture  
Dew Point 36 °F    
Average Humidity 37    
Maximum Humidity 60    
Minimum Humidity 13    
Precipitation  
Precipitation 0.00 in 0.01 in 0.69 in (2015)
Month to date precipitation 0.03 0.22  
Year to date precipitation 2.32 6.28  
Sea Level Pressure  
Sea Level Pressure 29.92 in    
Wind  
Wind Speed 4 mph (South)    
Max Wind Speed 14 mph    
Max Gust Speed 21 mph    
Visibility 10 miles    
Events      
T = Trace of Precipitation, MM = Missing Value Source: NWS Daily Summary

Daily Weather History Graph

Daily Weather History Graph

Search for Another Location

Airport or City:

Trip Planner

Search our weather history database for the weather conditions in past years. The results will help you decide how hot, cold, wet, or windy it might be!

Date:

Astronomy

Jul. 23, 2013 Rise Set
Actual Time 6:18 AM MDT 9:04 PM MDT
Civil Twilight 5:45 AM MDT 9:36 PM MDT
Nautical Twilight 5:04 AM MDT 10:18 PM MDT
Astronomical Twilight 4:16 AM MDT 11:05 PM MDT
Moon 9:31 PM MDT 7:34 AM MDT
Length of Visible Light 15h 51m
Length of Day
14h 45m
Full, 99% of the Moon is Illuminated
Jul 23
Full
Jul 29
Last Quarter
Aug 6
New
Aug 14
First Quarter
Aug 20
Full

Hourly Weather History & Observations

Time (MDT) Temp. Dew Point Humidity Pressure Visibility Wind Dir Wind Speed Gust Speed Precip Events Conditions
12:53 AM 73.9 °F 21.0 °F 14% 29.84 in 10.0 mi West 11.5 mph - N/A   Clear
1:53 AM 71.1 °F 23.0 °F 16% 29.85 in 10.0 mi West 10.4 mph - N/A   Clear
2:53 AM 66.9 °F 34.0 °F 30% 29.86 in 10.0 mi ESE 5.8 mph - N/A   Clear
3:53 AM 64.9 °F 28.0 °F 25% 29.88 in 10.0 mi SSW 5.8 mph - N/A   Clear
4:53 AM 57.9 °F 35.1 °F 42% 29.91 in 10.0 mi SW 4.6 mph - N/A   Clear
5:53 AM 54.0 °F 36.0 °F 51% 29.94 in 10.0 mi West 5.8 mph - N/A   Clear
6:53 AM 64.0 °F 32.0 °F 30% 29.93 in 10.0 mi West 6.9 mph - N/A   Clear
7:53 AM 61.0 °F 43.0 °F 52% 29.97 in 10.0 mi Calm Calm - N/A   Clear
8:53 AM 66.9 °F 46.0 °F 47% 30.00 in 10.0 mi Calm Calm - N/A   Clear
9:53 AM 75.0 °F 39.9 °F 28% 29.99 in 10.0 mi Calm Calm - N/A   Clear
10:53 AM 79.0 °F 36.0 °F 21% 29.99 in 10.0 mi Variable 3.5 mph - N/A   Clear
11:53 AM 84.0 °F 36.0 °F 18% 29.98 in 10.0 mi Variable 4.6 mph - N/A   Clear
12:53 PM 84.0 °F 37.9 °F 19% 29.96 in 10.0 mi SE 5.8 mph - N/A   Clear
1:53 PM 84.9 °F 34.0 °F 16% 29.94 in 10.0 mi East 3.5 mph - N/A   Clear
2:53 PM 88.0 °F 34.0 °F 15% 29.93 in 10.0 mi Variable 3.5 mph - N/A   Clear
3:53 PM 88.0 °F 35.1 °F 15% 29.91 in 10.0 mi East 4.6 mph - N/A   Clear
4:53 PM 90.0 °F 35.1 °F 14% 29.90 in 10.0 mi East 3.5 mph - N/A   Clear
5:53 PM 89.1 °F 32.0 °F 13% 29.89 in 10.0 mi NW 3.5 mph - N/A   Clear
6:53 PM 90.0 °F 33.1 °F 13% 29.86 in 10.0 mi Calm Calm - N/A   Clear
7:53 PM 82.9 °F 30.9 °F 15% 29.88 in 10.0 mi Calm Calm - N/A   Clear
8:53 PM 73.9 °F 46.9 °F 38% 29.90 in 10.0 mi Calm Calm - N/A   Clear
9:53 PM 66.0 °F 48.9 °F 54% 29.92 in 10.0 mi Calm Calm - N/A   Clear
10:53 PM 63.0 °F 48.0 °F 58% 29.93 in 10.0 mi South 3.5 mph - N/A   Clear
11:53 PM 61.0 °F 43.0 °F 52% 29.92 in 10.0 mi SE 4.6 mph - N/A   Clear